(X25) UBC Southern Observatory  (S30.526459 W70.853220)  Chile.
(X76) SUN Observatory, Redencao  (S8.035852 W50.009030)  Brazil.  Observer W.
   Ferreira. 0.13-m f/5.0 reflector + CMO.
(X93) Munhoz Observatory  (S22.628912 W46.395300)  Brazil.  Observer A.
   Brossel. 0.30-m f/4.0 reflector + CMO.
(Y05) SONEAR Wykrota-CEAMIG, Serra da Piedade  (S19.824251 W43.690000)
   Brazil.  Observer C. Jacques. 0.45-m f/2.9 reflector + CMO.

Orbital elements:  A11BRI6
   Perihelion 2026 Mar 20.218653 +/- 0.0739 TT =  5:14:51.6 (JD 2461119.718653)
Epoch 2026 May 13.0 TT = JDT 2461173.5   Earth MOID: 0.0109   Ve: 0.0648
M  12.446427361 +/- 0.23            Me: 0.0925   Ma: 0.0586      AutoNEOCP
n   0.231426472 +/- 0.00398         Peri.  104.147218 +/- 0.06
a   2.627407040 +/- 0.0301          Node     6.801367 +/- 0.048
e   0.84419103 +/- 0.00201          Incl.   12.974555 +/- 0.019
P   4.25884                H 19.89  G  0.15   U  9.0
q 0.409373579 +/- 0.000583    Q 4.845440500 +/- 0.0608    (J2000 ecliptic)
From 89 observations 2026 May 3-13; mean residual 0".38
Residuals in arcseconds: 
260503 W68  .63-  .05-    260504 X76  .68-  .61+    260512 X25  .11+  .18+    
260503 W68  .11+  .47-    260504 X25  .27-  .86-    260512 I47  .29+  .98-    
260503 W68  .65+  .37+    260504 X76  .58-  .42+    260512 X25  .27+  .22+    
260503 W68  .32+  .16-    260505 X07  .25+  .25-    260512 X25  .44+  .36+    
260503 E23  .18+  .04-    260505 X07  .46-  .26-    260512 X25  .52+  .21+    
260503 E23  .01-  .38+    260505 M49  .03-  .01+    260512 X25  .43+  .16+    
260503 E23  .00   .04+    260505 M49  .01+  .03+    260512 W68  .30+  .63+    
260503 M21  .10+  .48+    260505 M49  .05+  .02+    260512 W68  .44-  1.1-    
260503 M21  .11-  .17+    260506 Q62  .39+  .09+    260512 W68  .39-  .68+    
260503 M21  .11-  .01+    260506 Q62  .36+  .25-    260512 W92  .03-  .47-    
260503 Y05  .30+  .19+    260506 Q62  .43+  .09-    260512 W68  .35+  .51-    
260503 Y05  .48+  .88-    260506 Q62  .39+  .07-    260512 W92  .48-  .27+    
260503 Y05  .06-  .16-    260506 323  .79+  .24+    260512 W92  .01+  .39-    
260504 E94  .10+  .23+    260506 323  .31+  .61+    260512 W92  .11-  .20+    
260504 E94  .23+  .30+    260506 323  .20-  .45-    260512 W92  .07-  .21+    
260504 E94  .25+  .04+    260506 M49  .04+  .08-    260512 I47  .67-  .19-    
260504 M49  .14+  .26+    260506 M49  .09-  .05-    260513 W85  .08-  .01+    
260504 M49  .15-  .12+    260506 M49  .04-  .09+    260513 W85  .33+  .12-    
260504 M49  .10+  .04+    260507 323  .45+  1.3-    260513 W85  .33+  .01+    
260504 M21  .10-  .35+    260507 323  1.0-  .47-    260513 309  .00   .04+    
260504 M21  .02+  .06+    260508 X93  1.1+  .67-    260513 309  .02+  .04+    
260504 M21  .01-  .02-    260508 X93  .16+  .26-    260513 309  .02-  .02+    
260504 Y05  .02-  .07-    260508 X93  .83+  1.1+    260513 309  .02-  .02+    
260504 Y05  .14-  .23+    260509 W87  .31-  .02-    260513 309  .02-  .02+    
260504 X25  .45-  .22-    260509 W87  .31-  .06-    260513 323  .14+  .52+    
260504 X25  .22-  .30-    260509 W87  .35-  .01+    260513 323  .02-  .02+    
260504 X25  .07-  .35-    260510 I47  .80-  .54+    260513 323  .00   .27+    
260504 Y05  .07+  .28+    260510 I47  .30+  .13+    260513 J04  .03-  .19+    
260504 X76  1.2-  .35+    260511 E62  .20-  .11-    260513 J04  .12-  .04-    
260504 X25  .02-  .42-    260511 E62  .54-  .03+    

Ephemerides (geocentric):
Date (UTC) HH   RA             Dec           delta  r     elong  mag " sig PA
---- --------  ------------   ------------  ------ ------ -----  --- --------
2026 05 14 07  11 21 54.386   -38 13 27.09  .27557 1.1885 124.5 19.2 .199  71
2026 05 14 08  11 22 17.162   -38 12 08.11  .27620 1.1892 124.5 19.2 .204  72
2026 05 14 09  11 22 39.829   -38 10 49.20  .27684 1.1898 124.6 19.2 .210  72
2026 05 14 10  11 23 02.390   -38 09 30.38  .27747 1.1904 124.6 19.2 .215  72
2026 05 14 11  11 23 24.843   -38 08 11.64  .27811 1.1910 124.7 19.2 .220  72
2026 05 14 12  11 23 47.191   -38 06 52.99  .27875 1.1917 124.7 19.2 .226  72
2026 05 14 13  11 24 09.434   -38 05 34.44  .27939 1.1923 124.8 19.2 .231  72
2026 05 14 14  11 24 31.572   -38 04 15.97  .28003 1.1929 124.8 19.2 .237  72
2026 05 14 15  11 24 53.606   -38 02 57.60  .28066 1.1936 124.9 19.2 .243  72
2026 05 14 16  11 25 15.537   -38 01 39.31  .28130 1.1942 124.9 19.2 .248  72
2026 05 14 17  11 25 37.366   -38 00 21.13  .28194 1.1948 125.0 19.2 .254  72
2026 05 14 18  11 25 59.094   -37 59 03.04  .28258 1.1954 125.0 19.2 .260  72
2026 05 14 19  11 26 20.720   -37 57 45.05  .28323 1.1961 125.1 19.2 .266  73
2026 05 14 20  11 26 42.246   -37 56 27.16  .28387 1.1967 125.1 19.2 .272  73
2026 05 14 21  11 27 03.672   -37 55 09.37  .28451 1.1973 125.1 19.2 .278  73
2026 05 14 22  11 27 25.000   -37 53 51.69  .28515 1.1979 125.2 19.2 .284  73
2026 05 14 23  11 27 46.229   -37 52 34.11  .28580 1.1986 125.2 19.2 .290  73
2026 05 15 00  11 28 07.360   -37 51 16.63  .28644 1.1992 125.3 19.3 .296  73
2026 05 15 01  11 28 28.395   -37 49 59.26  .28708 1.1998 125.3 19.3 .302  73
2026 05 15 02  11 28 49.333   -37 48 42.00  .28773 1.2004 125.4 19.3 .308  73
2026 05 15 03  11 29 10.175   -37 47 24.84  .28837 1.2011 125.4 19.3 .315  73
2026 05 15 04  11 29 30.923   -37 46 07.80  .28902 1.2017 125.4 19.3 .321  73
2026 05 15 05  11 29 51.576   -37 44 50.86  .28966 1.2023 125.5 19.3 .327  73
2026 05 15 06  11 30 12.135   -37 43 34.04  .29031 1.2029 125.5 19.3 .334  73
2026 05 15 07  11 30 32.601   -37 42 17.33  .29096 1.2036 125.6 19.3 .341  73
2026 05 15 08  11 30 52.975   -37 41 00.74  .29161 1.2042 125.6 19.3 .347  73
2026 05 15 09  11 31 13.256   -37 39 44.26  .29225 1.2048 125.7 19.3 .354  73
2026 05 15 10  11 31 33.447   -37 38 27.90  .29290 1.2054 125.7 19.3 .361  73
2026 05 15 11  11 31 53.546   -37 37 11.65  .29355 1.2061 125.7 19.3 .367  73
2026 05 15 12  11 32 13.556   -37 35 55.52  .29420 1.2067 125.8 19.3 .374  73
2026 05 15 13  11 32 33.476   -37 34 39.51  .29485 1.2073 125.8 19.3 .381  74
2026 05 15 14  11 32 53.307   -37 33 23.63  .29550 1.2079 125.8 19.3 .388  74
2026 05 15 15  11 33 13.050   -37 32 07.86  .29615 1.2086 125.9 19.3 .395  74
2026 05 15 16  11 33 32.705   -37 30 52.21  .29680 1.2092 125.9 19.3 .402  74
2026 05 15 17  11 33 52.273   -37 29 36.69  .29745 1.2098 126.0 19.3 .409  74
2026 05 15 18  11 34 11.754   -37 28 21.29  .29811 1.2104 126.0 19.3 .416  74
2026 05 15 19  11 34 31.149   -37 27 06.01  .29876 1.2111 126.0 19.3 .424  74
2026 05 15 20  11 34 50.459   -37 25 50.86  .29941 1.2117 126.1 19.3 .431  74
2026 05 15 21  11 35 09.684   -37 24 35.84  .30007 1.2123 126.1 19.3 .438  74
2026 05 15 22  11 35 28.825   -37 23 20.94  .30072 1.2129 126.2 19.4 .446  74
2026 05 15 23  11 35 47.882   -37 22 06.17  .30137 1.2135 126.2 19.4 .453  74
2026 05 16 00  11 36 06.856   -37 20 51.53  .30203 1.2142 126.2 19.4 .460  74
2026 05 16 01  11 36 25.747   -37 19 37.01  .30268 1.2148 126.3 19.4 .468  74
2026 05 16 02  11 36 44.556   -37 18 22.62  .30334 1.2154 126.3 19.4 .476  74
2026 05 16 03  11 37 03.284   -37 17 08.37  .30400 1.2160 126.3 19.4 .483  74
2026 05 16 04  11 37 21.930   -37 15 54.24  .30465 1.2167 126.4 19.4 .491  74
2026 05 16 05  11 37 40.496   -37 14 40.25  .30531 1.2173 126.4 19.4 .499  74
2026 05 16 06  11 37 58.982   -37 13 26.39  .30597 1.2179 126.4 19.4 .507  74